Location: breval
(48.9474°N, 1.5319°E)
Time: 10:02:26
(UTC+00:00)

Envisat - Visible Passes

Search period start: 20 February 2018 00:00
Search period end: 02 March 2018 00:00
Orbit: 764 x 766 km, 98.2° (Epoch: 19 February)

Date Brightness Start Highest point End Pass type
(mag) Time Alt. Az. Time Alt. Az. Time Alt. Az.
20 Feb 4.2 17:55:05 10° ESE 17:58:55 22° ENE 18:02:44 10° N visible
20 Feb 3.4 19:32:28 10° S 19:37:30 63° WSW 19:42:34 10° NNW visible
21 Feb 2.9 18:55:45 10° SSE 19:00:46 66° ENE 19:05:50 10° N visible
21 Feb 5.4 20:36:41 10° SW 20:40:16 19° W 20:43:53 10° NW visible
22 Feb 3.7 18:19:43 10° SE 18:24:15 34° ENE 18:28:47 10° N visible
22 Feb 4.3 19:58:30 10° SSW 20:03:13 38° W 20:07:57 10° NNW visible
23 Feb 3.1 19:21:16 10° S 19:26:21 78° WSW 19:31:28 10° NNW visible
23 Feb 5.9 21:04:41 10° WSW 21:06:14 11° W 21:07:47 10° WNW visible
24 Feb 3.1 18:44:45 10° SE 18:49:40 53° ENE 18:54:38 10° N visible
24 Feb 5.2 20:24:58 10° SW 20:29:01 23° W 20:33:04 10° NW visible
25 Feb 3.9 18:08:55 10° ESE 18:13:12 28° ENE 18:17:29 10° N visible
25 Feb 3.9 19:47:08 10° S 19:52:00 47° W 19:56:56 10° NNW visible
26 Feb 2.9 19:10:07 10° SSE 19:15:12 86° ENE 19:20:20 10° NNW visible
26 Feb 5.8 20:52:14 10° WSW 20:54:56 14° W 20:57:37 10° NW visible
27 Feb 3.3 18:33:48 10° SE 18:38:35 44° ENE 18:43:24 10° N visible
27 Feb 4.8 20:13:24 10° SSW 20:17:46 29° W 20:22:10 10° NW visible
28 Feb 3.6 19:35:50 10° S 19:40:49 58° W 19:45:52 10° NNW visible
01 Mar 2.9 18:59:02 10° SSE 19:04:05 71° ENE 19:09:09 10° N visible
01 Mar 5.6 20:40:16 10° SW 20:43:38 18° W 20:47:02 10° NW visible
